| time (UTC) | temp F | wind direction | speed MPH | gust MPH | rain 1hr in | rain 24hr in | rain mn in | humidity % | barometer mb |
| 20260508134020 | 74 | 252 | 9.0 | 15.0 | 0.00 | 0.00 | 0.00 | 60 | 1012.0 |
| 20260508132512 | 74 | 239 | 10.0 | 22.0 | 0.00 | 0.00 | 0.00 | 60 | 1012.0 |
| 20260508130512 | 74 | 253 | 7.0 | 12.0 | 0.00 | 0.00 | 0.00 | 60 | 1011.9 |
| 20260508130013 | 75 | 267 | 7.0 | 13.0 | 0.00 | 0.00 | 0.00 | 54 | 1012.0 |
| 20260508125512 | 76 | 265 | 10.0 | 14.0 | 0.00 | 0.00 | 0.00 | 53 | 1012.1 |
| 20260508124512 | 75 | 259 | 7.0 | 14.0 | 0.00 | 0.00 | 0.00 | 55 | 1012.1 |
| 20260508123020 | 73 | 268 | 5.0 | 12.0 | 0.00 | 0.00 | 0.00 | 58 | 1012.2 |
| 20260508122020 | 73 | 272 | 3.0 | 12.0 | 0.00 | 0.00 | 0.00 | 59 | 1012.2 |
| 20260508121512 | 73 | 245 | 5.0 | 10.0 | 0.00 | 0.00 | 0.00 | 59 | 1012.3 |
| 20260508121020 | 73 | 252 | 5.0 | 13.0 | 0.00 | 0.00 | 0.00 | 56 | 1012.3 |
| 20260508120512 | 74 | 275 | 6.0 | 12.0 | 0.00 | 0.00 | 0.00 | 56 | 1012.3 |
| 20260508115020 | 73 | 253 | 6.0 | 12.0 | 0.00 | 0.00 | 0.00 | 59 | 1012.4 |
| 20260508113512 | 73 | 222 | 5.0 | 13.0 | 0.00 | 0.00 | 0.00 | 58 | 1012.4 |
| 20260508110512 | 72 | 289 | 5.0 | 12.0 | 0.00 | 0.00 | 0.00 | 58 | 1012.3 |
| 20260508110015 | 72 | 258 | 6.0 | 15.0 | 0.00 | 0.00 | 0.00 | 58 | 1012.3 |
| 20260508105020 | 71 | 293 | 9.0 | 14.0 | 0.00 | 0.00 | 0.00 | 59 | 1012.3 |
| 20260508104512 | 72 | 236 | 4.0 | 14.0 | 0.00 | 0.00 | 0.00 | 59 | 1012.4 |
| 20260508102019 | 71 | 336 | 10.0 | 13.0 | 0.00 | 0.00 | 0.00 | 60 | 1012.7 |
| 20260508101512 | 71 | 330 | 9.0 | 17.0 | 0.00 | 0.00 | 0.00 | 58 | 1012.7 |
| 20260508101020 | 71 | 283 | 9.0 | 20.0 | 0.00 | 0.00 | 0.00 | 58 | 1012.6 |
| 20260508100512 | 71 | 278 | 10.0 | 16.0 | 0.00 | 0.00 | 0.00 | 59 | 1012.6 |
| 20260508094020 | 70 | 277 | 5.0 | 12.0 | 0.00 | 0.00 | 0.00 | 62 | 1012.5 |
| 20260508093513 | 70 | 299 | 7.0 | 13.0 | 0.00 | 0.00 | 0.00 | 63 | 1012.5 |
| 20260508092512 | 69 | 268 | 7.0 | 14.0 | 0.00 | 0.00 | 0.00 | 64 | 1012.4 |
| 20260508092021 | 69 | 271 | 7.0 | 13.0 | 0.00 | 0.00 | 0.00 | 67 | 1012.4 |
| 20260508091019 | 69 | 271 | 3.0 | 10.0 | 0.00 | 0.00 | 0.00 | 67 | 1012.3 |
| 20260508090512 | 68 | 266 | 4.0 | 12.0 | 0.00 | 0.00 | 0.00 | 68 | 1012.3 |
| 20260508090012 | 68 | 237 | 5.0 | 12.0 | 0.00 | 0.00 | 0.00 | 67 | 1012.3 |
| 20260508083019 | 67 | 228 | 7.0 | 12.0 | 0.00 | 0.00 | 0.00 | 70 | 1012.3 |
| 20260508082513 | 67 | 285 | 7.0 | 12.0 | 0.00 | 0.00 | 0.00 | 70 | 1012.3 |
| 20260508081512 | 66 | 228 | 5.0 | 14.0 | 0.00 | 0.00 | 0.00 | 71 | 1012.2 |
| 20260508081019 | 66 | 276 | 7.0 | 12.0 | 0.00 | 0.00 | 0.00 | 71 | 1012.2 |
| 20260508080014 | 66 | 241 | 7.0 | 13.0 | 0.00 | 0.00 | 0.00 | 72 | 1012.2 |
| 20260508075512 | 65 | 220 | 9.0 | 14.0 | 0.00 | 0.00 | 0.00 | 72 | 1012.3 |
| 20260508074019 | 64 | 269 | 8.0 | 13.0 | 0.00 | 0.00 | 0.00 | 74 | 1012.2 |
| 20260508064511 | 62 | 264 | 5.0 | 10.0 | 0.00 | 0.00 | 0.00 | 79 | 1012.2 |
| 20260508061512 | 61 | 318 | 3.0 | 7.0 | 0.00 | 0.00 | 0.00 | 80 | 1011.8 |
| 20260508061019 | 61 | 247 | 3.0 | 6.0 | 0.00 | 0.00 | 0.00 | 81 | 1011.9 |
| 20260508060512 | 60 | 256 | 3.0 | 7.0 | 0.00 | 0.00 | 0.00 | 81 | 1012.0 |
| 20260508055511 | 60 | 296 | 4.0 | 8.0 | 0.00 | 0.00 | 0.00 | 82 | 1011.9 |
| 20260508055019 | 59 | 346 | 2.0 | 6.0 | 0.00 | 0.00 | 0.00 | 83 | 1011.9 |
| 20260508054019 | 59 | 323 | 3.0 | 5.0 | 0.00 | 0.00 | 0.00 | 83 | 1011.9 |
| 20260508052512 | 58 | 287 | 2.0 | 3.0 | 0.00 | 0.00 | 0.00 | 83 | 1011.8 |
| 20260508052019 | 58 | 315 | 2.0 | 3.0 | 0.00 | 0.00 | 0.00 | 84 | 1011.8 |
| 20260508051511 | 57 | 359 | 2.0 | 3.0 | 0.00 | 0.00 | 0.00 | 85 | 1011.6 |
| 20260508050512 | 56 | 320 | 1.0 | 2.0 | 0.00 | 0.00 | 0.00 | 88 | 1011.5 |
| 20260508050012 | 56 | 359 | 1.0 | 2.0 | 0.00 | 0.00 | 0.00 | 88 | 1011.4 |
| 20260508045515 | 56 | 303 | 1.0 | 3.0 | 0.00 | 0.00 | 0.00 | 89 | 1011.3 |
| 20260508045019 | 55 | 359 | 2.0 | 2.0 | 0.00 | 0.00 | 0.00 | 91 | 1011.2 |
| 20260508043511 | 54 | 359 | 1.0 | 2.0 | 0.00 | 0.00 | 0.00 | 92 | 1011.2 |
| 20260508042511 | 54 | 359 | 1.0 | 2.0 | 0.00 | 0.00 | 0.00 | 92 | 1011.0 |
| 20260508041511 | 54 | 359 | 1.0 | 3.0 | 0.00 | 0.00 | 0.00 | 92 | 1010.8 |
| 20260508040511 | 54 | 359 | 1.0 | 3.0 | 0.00 | 0.00 | 0.00 | 93 | 1010.9 |
| 20260508034020 | 54 | 359 | 2.0 | 3.0 | 0.00 | 0.00 | 0.00 | 93 | 1010.6 |
| 20260508031511 | 55 | 359 | 1.0 | 3.0 | 0.00 | 0.00 | 0.00 | 93 | 1010.5 |
| 20260508031018 | 55 | 359 | 1.0 | 3.0 | 0.00 | 0.00 | 0.00 | 93 | 1010.5 |
| 20260508030511 | 55 | 292 | 2.0 | 3.0 | 0.00 | 0.00 | 0.00 | 93 | 1010.5 |
| 20260508030011 | 56 | 298 | 1.0 | 3.0 | 0.00 | 0.00 | 0.00 | 93 | 1010.3 |
| 20260508025019 | 56 | 272 | 1.0 | 3.0 | 0.00 | 0.00 | 0.00 | 93 | 1010.3 |
| 20260508024511 | 56 | 272 | 1.0 | 2.0 | 0.00 | 0.00 | 0.00 | 93 | 1010.3 |
| 20260508023512 | 56 | 359 | 1.0 | 2.0 | 0.00 | 0.00 | 0.00 | 93 | 1010.1 |
| 20260508023019 | 56 | 271 | 1.0 | 2.0 | 0.00 | 0.00 | 0.00 | 93 | 1010.2 |
| 20260508022020 | 56 | 249 | 1.0 | 2.0 | 0.00 | 0.00 | 0.00 | 93 | 1010.3 |
| 20260508021512 | 56 | 359 | 1.0 | 2.0 | 0.00 | 0.00 | 0.00 | 92 | 1010.3 |
| 20260508020511 | 56 | 282 | 1.0 | 3.0 | 0.00 | 0.00 | 0.00 | 93 | 1010.4 |
| 20260508015511 | 57 | 137 | 1.0 | 2.0 | 0.00 | 0.00 | 0.00 | 93 | 1010.2 |
| 20260508013511 | 57 | 62 | 2.0 | 3.0 | 0.00 | 0.00 | 0.00 | 92 | 1010.1 |
| 20260508012511 | 57 | 103 | 1.0 | 3.0 | 0.00 | 0.00 | 0.00 | 92 | 1010.0 |
| 20260508012018 | 57 | 57 | 2.0 | 5.0 | 0.00 | 0.00 | 0.00 | 92 | 1010.0 |
| 20260508011018 | 57 | 89 | 3.0 | 3.0 | 0.00 | 0.00 | 0.00 | 92 | 1009.7 |
| 20260508010511 | 57 | 108 | 2.0 | 3.0 | 0.00 | 0.00 | 0.00 | 92 | 1009.8 |
| 20260508010011 | 57 | 75 | 3.0 | 8.0 | 0.00 | 0.00 | 0.00 | 92 | 1009.9 |
| 20260508005018 | 57 | 359 | 2.0 | 3.0 | 0.00 | 0.00 | 0.00 | 92 | 1010.2 |
| 20260508004511 | 57 | 102 | 2.0 | 6.0 | 0.00 | 0.00 | 0.00 | 92 | 1010.2 |
| 20260508004018 | 57 | 82 | 3.0 | 6.0 | 0.00 | 0.00 | 0.00 | 91 | 1010.2 |
| 20260508003511 | 57 | 75 | 2.0 | 3.0 | 0.00 | 0.00 | 0.00 | 91 | 1010.4 |
| 20260508001018 | 57 | 96 | 2.0 | 3.0 | 0.00 | 0.00 | 0.00 | 91 | 1010.8 |
| 20260508000511 | 57 | 88 | 1.0 | 3.0 | 0.00 | 0.00 | 0.00 | 91 | 1011.0 |
| 20260507235511 | 57 | 101 | 3.0 | 7.0 | 0.00 | 0.00 | 0.00 | 92 | 1011.1 |
| 20260507234018 | 57 | 69 | 2.0 | 6.0 | 0.00 | 0.00 | 0.00 | 92 | 1011.3 |
| 20260507233018 | 57 | 84 | 1.0 | 2.0 | 0.00 | 0.00 | 0.00 | 92 | 1011.9 |
| 20260507232018 | 57 | 87 | 1.0 | 3.0 | 0.00 | 0.00 | 0.00 | 92 | 1012.1 |
| 20260507231511 | 57 | 66 | 2.0 | 3.0 | 0.00 | 0.00 | 0.00 | 92 | 1012.1 |
| 20260507230011 | 57 | 55 | 2.0 | 3.0 | 0.00 | 0.00 | 0.00 | 92 | 1012.2 |
| 20260507225511 | 57 | 55 | 2.0 | 7.0 | 0.00 | 0.00 | 0.00 | 93 | 1012.2 |
| 20260507225018 | 57 | 78 | 4.0 | 7.0 | 0.00 | 0.00 | 0.00 | 93 | 1012.0 |
| 20260507224018 | 57 | 78 | 2.0 | 3.0 | 0.00 | 0.00 | 0.00 | 93 | 1011.7 |
| 20260507222018 | 57 | 53 | 2.0 | 3.0 | 0.00 | 0.00 | 0.00 | 93 | 1012.1 |
| 20260507221511 | 57 | 54 | 1.0 | 3.0 | 0.00 | 0.00 | 0.00 | 93 | 1012.4 |
| 20260507221017 | 57 | 89 | 2.0 | 3.0 | 0.00 | 0.00 | 0.00 | 93 | 1012.3 |
| 20260507220511 | 57 | 74 | 2.0 | 3.0 | 0.00 | 0.00 | 0.00 | 93 | 1012.2 |
| 20260507220013 | 57 | 96 | 5.0 | 7.0 | 0.00 | 0.00 | 0.00 | 93 | 1012.0 |
| 20260507214017 | 57 | 76 | 6.0 | 12.0 | 0.00 | 0.00 | 0.00 | 93 | 1011.0 |
| 20260507212511 | 57 | 91 | 6.0 | 10.0 | 0.00 | 0.00 | 0.00 | 93 | 1011.4 |
| 20260507211511 | 57 | 75 | 6.0 | 13.0 | 0.00 | 0.00 | 0.00 | 93 | 1011.3 |
| 20260507211018 | 57 | 58 | 7.0 | 12.0 | 0.00 | 0.00 | 0.00 | 93 | 1011.2 |
| 20260507210511 | 57 | 90 | 6.0 | 12.0 | 0.00 | 0.00 | 0.00 | 93 | 1011.3 |
| 20260507205511 | 57 | 80 | 5.0 | 12.0 | 0.00 | 0.00 | 0.00 | 93 | 1011.2 |
| 20260507205021 | 57 | 95 | 7.0 | 10.0 | 0.00 | 0.00 | 0.00 | 93 | 1011.0 |
| 20260507204515 | 57 | 76 | 6.0 | 12.0 | 0.00 | 0.00 | 0.00 | 93 | 1011.2 |
| 20260507204021 | 57 | 100 | 6.0 | 12.0 | 0.00 | 0.00 | 0.00 | 93 | 1011.0 |
| 20260507201514 | 57 | 92 | 6.0 | 12.0 | 0.00 | 0.00 | 0.00 | 94 | 1011.0 |
| 20260507200515 | 57 | 78 | 5.0 | 9.0 | 0.00 | 0.00 | 0.00 | 94 | 1011.2 |
| 20260507195515 | 57 | 88 | 5.0 | 12.0 | 0.00 | 0.00 | 0.00 | 94 | 1011.1 |
| 20260507194514 | 57 | 94 | 7.0 | 12.0 | 0.00 | 0.00 | 0.00 | 94 | 1011.3 |
| 20260507193514 | 57 | 100 | 6.0 | 12.0 | 0.00 | 0.00 | 0.00 | 94 | 1011.1 |
| 20260507193021 | 57 | 72 | 4.0 | 12.0 | 0.00 | 0.00 | 0.00 | 93 | 1011.1 |
| 20260507192515 | 57 | 102 | 7.0 | 13.0 | 0.00 | 0.00 | 0.00 | 93 | 1010.7 |
| 20260507191514 | 57 | 107 | 7.0 | 14.0 | 0.00 | 0.00 | 0.00 | 93 | 1010.6 |
| 20260507190514 | 57 | 141 | 6.0 | 12.0 | 0.00 | 0.00 | 0.00 | 93 | 1010.5 |
| 20260507185515 | 57 | 98 | 6.0 | 12.0 | 0.00 | 0.00 | 0.00 | 93 | 1010.5 |
| 20260507185021 | 57 | 77 | 9.0 | 14.0 | 0.00 | 0.00 | 0.00 | 93 | 1010.5 |
| 20260507182515 | 58 | 94 | 7.0 | 13.0 | 0.00 | 0.00 | 0.00 | 92 | 1010.3 |
| 20260507182022 | 58 | 107 | 6.0 | 12.0 | 0.00 | 0.00 | 0.00 | 92 | 1010.4 |
| 20260507181514 | 58 | 99 | 5.0 | 12.0 | 0.00 | 0.00 | 0.00 | 92 | 1010.4 |
| 20260507181023 | 58 | 64 | 6.0 | 10.0 | 0.00 | 0.00 | 0.00 | 92 | 1010.3 |
| 20260507180014 | 58 | 100 | 7.0 | 12.0 | 0.00 | 0.00 | 0.00 | 91 | 1010.2 |
| 20260507175022 | 58 | 130 | 7.0 | 14.0 | 0.00 | 0.00 | 0.00 | 91 | 1010.1 |
| 20260507173023 | 58 | 96 | 7.0 | 12.0 | 0.00 | 0.00 | 0.00 | 91 | 1010.1 |
| 20260507172515 | 58 | 87 | 6.0 | 13.0 | 0.00 | 0.00 | 0.00 | 91 | 1010.0 |
| 20260507172022 | 58 | 104 | 7.0 | 15.0 | 0.00 | 0.00 | 0.00 | 91 | 1009.9 |
| 20260507171515 | 58 | 56 | 9.0 | 15.0 | 0.00 | 0.00 | 0.00 | 90 | 1009.9 |
| 20260507165515 | 58 | 110 | 7.0 | 13.0 | 0.00 | 0.00 | 0.00 | 90 | 1010.1 |
| 20260507164022 | 58 | 81 | 9.0 | 16.0 | 0.00 | 0.00 | 0.00 | 89 | 1009.9 |
| 20260507163515 | 58 | 48 | 8.0 | 16.0 | 0.00 | 0.00 | 0.00 | 89 | 1009.9 |
| 20260507163022 | 58 | 104 | 9.0 | 15.0 | 0.00 | 0.00 | 0.00 | 89 | 1010.1 |
| 20260507162515 | 58 | 85 | 8.0 | 15.0 | 0.00 | 0.00 | 0.00 | 89 | 1010.3 |
| 20260507162022 | 58 | 81 | 10.0 | 16.0 | 0.00 | 0.00 | 0.00 | 89 | 1010.3 |
| 20260507161515 | 58 | 76 | 9.0 | 18.0 | 0.00 | 0.00 | 0.00 | 89 | 1010.1 |
| 20260507161022 | 58 | 67 | 8.0 | 17.0 | 0.00 | 0.00 | 0.00 | 89 | 1010.1 |
| 20260507160514 | 58 | 97 | 8.0 | 13.0 | 0.00 | 0.00 | 0.00 | 89 | 1010.0 |
| 20260507160014 | 58 | 102 | 10.0 | 16.0 | 0.00 | 0.00 | 0.00 | 88 | 1010.0 |
| 20260507155514 | 58 | 83 | 7.0 | 20.0 | 0.00 | 0.00 | 0.00 | 88 | 1010.2 |
| 20260507154514 | 58 | 50 | 10.0 | 23.0 | 0.00 | 0.00 | 0.00 | 88 | 1009.8 |
| 20260507154022 | 58 | 99 | 10.0 | 17.0 | 0.00 | 0.00 | 0.00 | 88 | 1009.6 |
| 20260507151022 | 59 | 103 | 12.0 | 20.0 | 0.00 | 0.00 | 0.00 | 87 | 1009.8 |
| 20260507145022 | 59 | 91 | 9.0 | 21.0 | 0.00 | 0.00 | 0.00 | 87 | 1009.7 |
| 20260507142022 | 58 | 122 | 14.0 | 26.0 | 0.00 | 0.00 | 0.00 | 87 | 1009.3 |
| 20260507141514 | 58 | 122 | 13.0 | 23.0 | 0.00 | 0.00 | 0.00 | 87 | 1009.3 |
| 20260507140514 | 58 | 91 | 14.0 | 23.0 | 0.00 | 0.00 | 0.00 | 87 | 1009.6 |